This is the latest recevied weather packets stored in our database for station/object SP8PUB-10. If no packets are shown the sender has not sent any weather packets the latest 10 day(s).
| Time | Temp. | Humidity | Pressure | Rain* | Wind** | Luminosity | Snow |
|---|---|---|---|---|---|---|---|
| 1777692022 | 2.78° C | 100% | 1026 hPa | - | - | - | - |
| 1777691122 | 2.78° C | 100% | 1026.1 hPa | - | - | - | - |
| 1777690222 | 2.78° C | 100% | 1026 hPa | - | - | - | - |
| 1777689322 | 2.78° C | 100% | 1025.9 hPa | - | - | - | - |
| 1777688422 | 3.33° C | 100% | 1025.8 hPa | - | - | - | - |
| 1777687522 | 3.33° C | 100% | 1025.9 hPa | - | - | - | - |
| 1777686622 | 3.33° C | 100% | 1025.8 hPa | - | - | - | - |
| 1777685722 | 3.33° C | 100% | 1026 hPa | - | - | - | - |
| 1777684821 | 3.89° C | 100% | 1025.9 hPa | - | - | - | - |
| 1777683921 | 3.89° C | 100% | 1026 hPa | - | - | - | - |
| 1777683021 | 3.89° C | 100% | 1025.6 hPa | - | - | - | - |
| 1777682121 | 4.44° C | 100% | 1025.9 hPa | - | - | - | - |
| 1777681221 | 4.44° C | 100% | 1025.9 hPa | - | - | - | - |
| 1777680321 | 4.44° C | 100% | 1026 hPa | - | - | - | - |
| 1777679421 | 5° C | 100% | 1025.9 hPa | - | - | - | - |
| 1777678521 | 5° C | 100% | 1026.1 hPa | - | - | - | - |
| 1777677621 | 5.56° C | 100% | 1026 hPa | - | - | - | - |
| 1777676720 | 5.56° C | 99% | 1026 hPa | - | - | - | - |
| 1777675820 | 5.56° C | 99% | 1025.9 hPa | - | - | - | - |
| 1777674920 | 6.11° C | 97% | 1025.8 hPa | - | - | - | - |
| 1777673124 | 6.67° C | 93% | 1025.9 hPa | - | - | - | - |
| 1777672224 | 7.22° C | 91% | 1025.9 hPa | - | - | - | - |
| 1777671324 | 7.78° C | 88% | 1025.9 hPa | - | - | - | - |
| 1777670424 | 7.78° C | 87% | 1025.8 hPa | - | - | - | - |
| 1777669524 | 8.33° C | 84% | 1025.6 hPa | - | - | - | - |
* Rain since midnight (hover to see other rain measurements)
** Current wind speed in m/s (hover to see current wind gust speed)